Regional Weather Roundup
Issued by NWS

Home | Current Version | Previous Version | Text Only | Print | Product List | Glossary On
Versions: 1 2 3 4 5 6 7 8 9 10 11 12 13 14 15 16 17 18 19 20 21 22 23 24 25 26 27 28 29 30 31 32 33 34 35 36 37 38 39 40 41 42 43 44 45 46 47 48 49 50
000
ASUS42 KFFC 190003
RWRGA
WEATHER ROUNDUP FOR GEORGIA
NATIONAL WEATHER SERVICE PEACHTREE CITY GA
800 PM EDT THU SEP 18 2014

NOTE: "FAIR" INDICATES FEW OR NO CLOUDS BELOW 12,000 FEET WITH NO
SIGNIFICANT WEATHER AND/OR OBSTRUCTIONS TO VISIBILITY.

* = USE WITH CAUTION. THE STATIONS MARKED WITH AN ASTERISK MAY NOT
REPORT WEATHER SUCH AS PRECIPITATION, FOG, OR THUNDER AND ARE NOT
QUALITY CONTROLLED BY NWS.

THE REMARK "TC" DENOTES TEMPERATURE READING IN DEGREES CELSIUS.

GAZ001>058-190100-
NORTH GEORGIA

CITY           SKY/WX    TMP DP  RH WIND       PRES   REMARKS
ATLANTA        PTCLDY    79  60  52 CALM      29.96R
6HR MIN TEMP:  79; 6HR MAX TEMP:  85;

ATHENS         CLEAR     73  65  75 CALM      29.96R
6HR MIN TEMP:  73; 6HR MAX TEMP:  83;

CHAMBLEE       CLEAR     74  64  71 SE5       29.96R
6HR MIN TEMP:  74; 6HR MAX TEMP:  85;

PEACHTREE CITY CLEAR     74  69  85 CALM      29.96R
6HR MIN TEMP:  74; 6HR MAX TEMP:  86;

ROME           CLEAR     74  61  63 N3        29.94R
6HR MIN TEMP:  74; 6HR MAX TEMP:  86;

WEST ATLANTA   CLEAR     74  64  71 CALM      29.95R
6HR MIN TEMP:  74; 6HR MAX TEMP:  84;

GAINESVILLE    PTCLDY    74  63  68 S3        29.99R
6HR MIN TEMP:  74; 6HR MAX TEMP:  81;

CARTERSVILLE   CLEAR     69  64  84 CALM      29.96R
6HR MIN TEMP:  69; 6HR MAX TEMP:  86;



CITY           SKY/WX    TMP DP  RH WIND       PRES   REMARKS
DALTON*        MOCLDY    72  63  73 CALM      29.96S
LAWRENCEVILLE* PTCLDY    75  61  60 SE7       29.96R
MARIETTA       PTCLDY    77  62  61 SW3       29.96R
KENNESAW*      PTCLDY    77  54  44 CALM      29.97R
$$

GAZ059>098-102>109-190100-
CENTRAL GEORGIA

CITY           SKY/WX    TMP DP  RH WIND       PRES   REMARKS
AUGUSTA-BUSH   PTCLDY    72  69  90 CALM      29.94S
6HR MIN TEMP:  72; 6HR MAX TEMP:  85; 6HR PCP:  0.14;

AUGUSTA-DANIEL PTCLDY    77  66  68 E6        29.96R
6HR MIN TEMP:  77; 6HR MAX TEMP:  85;

COLUMBUS       MOCLDY    79  63  57 E5        29.94R
6HR MIN TEMP:  79; 6HR MAX TEMP:  87;

MACON          PTCLDY    73  69  87 CALM      29.95R
6HR MIN TEMP:  73; 6HR MAX TEMP:  82;

ROBINS AFB     PTCLDY    74  70  87 NE2       29.94R


CITY           SKY/WX    TMP DP  RH WIND       PRES   REMARKS
LAGRANGE*      MOCLDY    76  71  86 S3        29.96R
SYLVANIA*      PTCLDY    79  76  92 CALM      29.94R
MILLEDGEVILLE* PTCLDY    72  72 100 CALM      29.95R
$$

GAZ099>101-110>166-190100-
SOUTH GEORGIA

CITY           SKY/WX    TMP DP  RH WIND       PRES   REMARKS
SAVANNAH       MOCLDY    80  70  71 SE6       29.94R
6HR MIN TEMP:  80; 6HR MAX TEMP:  89; 6HR PCP:  0.07;

VALDOSTA       CLOUDY    81  65  58 N6        29.91S
6HR MIN TEMP:  79; 6HR MAX TEMP:  91;

ALMA           PTCLDY    75  71  87 CALM      29.92S
6HR MIN TEMP:  75; 6HR MAX TEMP:  87;

ST SIMONS      PTCLDY    80  72  76 E7        29.92R
6HR MIN TEMP:  80; 6HR MAX TEMP:  86;

FT STEWART     PTCLDY    78  73  83 E2        29.92R
ALBANY         MOCLDY    79  67  66 N3        29.94S
HUNTER AFB     PTCLDY    78  72  81 E3        29.92R
MOODY AFB      CLOUDY    78  67  69 N5        29.92R
BRUNSWICK      PTCLDY    77  72  83 CALM      29.93R


CITY           SKY/WX    TMP DP  RH WIND       PRES   REMARKS
BAINBRIDGE*    MOCLDY    84  68  58 CALM      29.92R
MOULTRIE*      MOCLDY    81  64  57 NE3       29.93S
VIDALIA*       PTCLDY    77  72  83 CALM      29.94S
WAYCROSS*      PTCLDY    80  74  81 N6        29.92S
DOUGLAS*       MOCLDY    79  70  73 NE5       29.94S
$$


USA.gov is the U.S. government's official web portal to all federal, state and local government web resources and services.